Date,TemperatureHighF,TemperatureAvgF,TemperatureLowF,DewpointHighF,DewpointAvgF,DewpointLowF,HumidityHigh,HumidityAvg,HumidityLow,PressureMaxIn,PressureMinIn,WindSpeedMaxMPH,WindSpeedAvgMPH,GustSpeedMaxMPH,PrecipitationSumIn
2013-1-1,39.1,36.5,29.8,30.0,28.1,20.0,74,72,68,30.06,29.92,11,2,11,0.02
2013-1-2,29.9,26.9,23.9,20.0,16.0,14.0,70,64,54,30.27,30.03,11,2,16,0.00
2013-1-3,32.3,26.8,21.0,20.0,16.7,14.0,75,66,56,30.27,30.16,9,2,11,0.00
2013-1-4,37.6,33.2,30.6,23.0,21.2,20.0,68,61,54,30.19,30.08,10,3,18,0.00
2013-1-5,36.6,31.9,28.5,25.0,21.4,20.0,75,66,56,30.40,30.12,8,2,16,0.00
2013-1-6,45.0,36.9,26.8,32.0,28.2,25.0,96,73,52,30.24,30.04,7,1,13,0.00
2013-1-7,42.0,37.1,28.2,30.0,27.3,24.0,83,69,56,30.45,30.15,9,2,13,0.00
2013-1-8,46.3,34.4,26.2,33.0,28.1,23.0,89,78,58,30.43,30.39,6,0,9,0.00
2013-1-9,43.4,35.8,27.3,38.0,32.5,26.0,95,88,64,30.41,30.23,4,0,7,0.01
2013-1-10,45.0,40.7,36.4,30.0,27.8,26.0,69,61,50,30.61,30.37,9,2,12,0.00
2013-1-11,44.1,39.2,33.3,41.0,34.2,27.0,97,83,70,30.53,30.12,1,0,6,0.46
2013-1-12,51.6,43.5,39.5,47.0,42.2,39.0,99,95,84,30.21,30.12,3,0,4,0.00
2013-1-13,46.8,43.9,39.1,47.0,43.6,39.0,99,99,98,30.16,30.00,2,0,6,0.00
2013-1-14,50.5,46.6,38.3,50.0,41.5,32.0,100,84,59,30.33,29.95,7,2,16,0.20
2013-1-15,38.5,36.0,32.3,37.0,31.5,28.0,95,84,71,30.39,30.21,5,1,7,0.32
2013-1-16,38.7,33.5,31.6,37.0,32.5,30.0,97,96,92,30.20,29.89,7,1,9,0.67
2013-1-17,40.0,37.5,35.0,36.0,29.9,28.0,89,74,66,30.16,30.00,8,2,13,0.00
2013-1-18,35.1,28.8,25.3,28.0,14.3,7.0,77,55,41,30.51,30.05,12,3,22,0.00
2013-1-19,54.1,38.6,26.6,30.0,24.3,13.0,73,58,33,30.42,29.93,7,2,12,0.00
2013-1-20,52.3,40.5,27.0,32.0,22.6,13.0,64,51,30,30.12,29.80,14,3,23,0.00
2013-1-21,33.5,26.8,21.9,24.0,15.3,11.0,88,63,52,30.14,29.89,7,1,16,0.00
2013-1-22,23.5,15.6,10.8,12.0,-1.6,-4.0,65,47,39,30.32,29.96,12,5,21,0.00
2013-1-23,19.2,13.3,9.8,3.0,-0.5,-2.0,67,55,41,30.36,30.21,9,2,21,0.00
2013-1-24,23.4,17.3,12.9,9.0,4.2,-2.0,84,59,33,30.52,30.16,9,2,21,0.00
2013-1-25,21.1,15.8,12.1,14.0,6.3,0.0,91,68,46,30.53,30.12,7,0,10,0.00
2013-1-26,25.4,18.9,15.0,15.0,13.4,12.0,90,79,61,30.46,30.13,8,1,12,0.02
2013-1-27,32.3,23.3,14.1,17.0,14.7,11.0,89,71,51,30.62,30.46,6,1,11,0.02
2013-1-28,35.0,31.0,25.9,34.0,28.6,18.0,97,91,70,30.53,30.08,3,0,8,0.02
2013-1-29,60.3,45.7,34.8,51.0,42.1,34.0,97,88,70,30.17,30.02,5,0,8,0.04
2013-1-30,62.8,52.0,42.7,58.0,50.9,41.0,99,96,85,29.99,29.29,10,1,13,1.54
2013-1-31,55.8,39.0,26.6,56.0,26.3,10.0,99,62,41,29.88,29.15,15,5,30,0.69
2013-2-1,27.3,23.8,17.6,18.0,9.1,5.0,74,54,42,30.36,29.85,16,4,29,0.00
2013-2-2,24.3,19.8,13.9,22.0,11.4,4.0,93,71,51,30.38,30.07,10,2,13,0.00
2013-2-3,30.2,25.5,18.8,26.0,21.8,15.0,94,86,64,30.05,29.85,11,1,16,0.10
2013-2-4,31.0,25.6,19.9,22.0,13.9,10.0,76,62,49,30.10,29.94,10,2,15,0.00
2013-2-5,33.5,30.6,28.0,30.0,26.5,22.0,94,85,74,29.98,29.90,3,0,5,0.00
2013-2-6,36.7,30.1,24.3,28.0,23.1,18.0,96,77,59,30.39,29.96,6,1,9,0.00
2013-2-7,34.9,29.7,23.3,23.0,18.3,14.0,82,64,43,30.50,30.29,5,0,8,0.00
2013-2-8,36.5,33.2,29.3,34.0,30.0,21.0,97,88,68,30.28,29.78,13,3,19,0.08
2013-2-9,32.6,26.5,21.4,22.0,17.1,14.0,77,68,56,30.43,29.90,15,5,24,0.02
2013-2-10,42.2,29.1,16.8,22.0,14.8,12.0,83,58,34,30.52,30.30,3,0,10,0.02
2013-2-11,46.1,38.9,32.0,45.0,36.4,22.0,98,91,63,30.29,29.71,8,1,17,0.24
2013-2-12,42.2,38.6,29.7,31.0,26.4,24.0,79,62,53,30.02,29.81,14,3,19,0.00
2013-2-13,40.9,33.2,25.2,31.0,27.1,22.0,97,79,60,30.00,29.72,5,0,8,0.02
2013-2-14,45.2,35.2,30.9,32.0,29.2,26.0,97,80,53,30.03,29.79,6,1,9,0.12
2013-2-15,52.8,39.6,30.8,35.0,31.3,28.0,96,74,46,30.05,29.95,12,2,13,0.12
2013-2-16,32.9,31.0,28.3,31.0,26.2,15.0,98,83,56,30.02,29.86,5,1,9,0.14
2013-2-17,28.1,24.6,20.2,15.0,10.5,4.0,69,56,41,30.18,29.84,17,5,25,0.00
2013-2-18,37.9,26.2,17.7,21.0,10.0,5.0,70,51,31,30.39,30.19,15,3,20,0.00
2013-2-19,40.8,35.2,28.7,38.0,29.3,21.0,94,80,61,30.19,29.73,10,2,18,0.14
2013-2-20,33.8,26.7,22.2,22.0,13.5,10.0,74,58,48,30.14,29.84,16,6,22,0.01
2013-2-21,32.6,26.5,21.9,17.0,13.9,10.0,67,59,50,30.36,30.12,12,4,18,0.00
2013-2-22,33.9,28.8,23.0,29.0,21.4,16.0,88,74,61,30.42,30.27,5,1,10,0.00
2013-2-23,43.2,36.6,31.5,42.0,35.8,29.0,98,96,90,30.27,29.85,4,0,5,0.05
2013-2-24,41.8,36.4,30.1,38.0,29.2,20.0,99,77,56,30.11,29.82,11,3,19,0.01
2013-2-25,45.1,35.4,27.4,27.0,23.2,19.0,73,62,45,30.25,30.11,8,2,13,0.00
2013-2-26,41.6,36.0,29.9,36.0,30.0,24.0,95,79,64,30.27,29.74,12,2,23,0.36
2013-2-27,49.5,42.7,36.2,41.0,36.7,33.0,97,81,60,29.73,29.54,11,4,23,0.19
2013-2-28,43.9,39.5,34.8,35.0,30.7,26.0,88,72,53,29.72,29.63,8,2,13,0.00
2013-3-1,40.7,37.7,34.7,31.0,28.1,24.0,79,69,61,29.88,29.70,11,3,14,0.00
2013-3-2,36.4,33.0,29.2,24.0,21.9,20.0,73,64,54,29.89,29.80,8,3,16,0.00
2013-3-3,33.7,30.2,26.7,24.0,20.0,17.0,82,66,57,29.89,29.80,11,4,19,0.00
2013-3-4,35.5,29.8,25.5,21.0,18.2,15.0,70,62,53,30.05,29.90,17,5,21,0.00
2013-3-5,45.0,33.8,25.4,28.0,23.4,18.0,77,66,50,30.10,29.93,7,2,14,0.00
2013-3-6,38.5,35.8,32.8,35.0,31.2,27.0,93,83,68,30.02,29.78,14,5,25,0.48
2013-3-7,45.3,37.9,33.7,28.0,25.3,22.0,75,61,46,30.16,30.03,11,3,19,0.00
2013-3-8,44.9,37.3,30.8,28.0,24.0,21.0,69,59,50,30.32,30.14,15,4,33,0.00
2013-3-9,57.8,42.7,30.6,27.0,22.9,21.0,68,48,26,30.37,30.28,7,2,12,0.00
2013-3-10,59.9,46.2,33.0,33.0,25.1,18.0,76,47,20,30.35,30.25,5,1,13,0.00
2013-3-11,56.0,46.2,37.0,48.0,41.2,34.0,94,83,61,30.27,29.99,7,1,13,0.00
2013-3-12,55.1,48.9,39.8,54.0,44.4,30.0,98,85,66,29.97,29.75,12,3,17,1.10
2013-3-13,44.6,38.2,30.1,34.0,25.9,16.0,86,62,40,30.03,29.90,11,4,16,0.01
2013-3-14,38.5,33.1,29.6,18.0,15.6,13.0,62,49,39,30.09,30.00,18,6,24,0.00
2013-3-15,52.2,39.9,24.7,32.0,22.9,11.0,65,51,39,30.09,29.78,11,3,19,0.00
2013-3-16,43.3,35.5,31.5,33.0,29.5,24.0,95,80,59,29.97,29.76,10,2,11,0.10
2013-3-17,36.9,33.2,31.3,31.0,25.2,20.0,95,74,52,30.31,29.96,9,1,11,0.00
2013-3-18,35.0,31.7,29.6,31.0,23.3,15.0,95,73,54,30.38,29.94,9,2,13,0.14
2013-3-19,52.7,38.7,32.6,37.0,29.2,18.0,98,74,30,29.93,29.74,15,3,26,0.40
2013-3-20,46.1,37.6,29.2,22.0,18.4,15.0,61,47,30,29.97,29.80,11,3,23,0.00
2013-3-21,35.5,30.5,27.0,23.0,14.6,9.0,69,52,37,29.87,29.75,11,3,21,0.00
2013-3-22,39.1,31.8,24.9,25.0,19.1,13.0,79,60,45,30.01,29.85,10,3,17,0.00
2013-3-23,44.1,35.5,27.8,23.0,20.8,20.0,73,56,41,30.02,29.95,14,3,18,0.00
2013-3-24,44.9,36.1,26.5,25.0,21.5,19.0,76,57,41,30.02,29.70,7,1,10,0.00
2013-3-25,37.6,33.4,30.9,32.0,30.0,25.0,95,88,62,29.70,29.54,8,1,13,0.39
2013-3-26,47.6,40.7,32.5,33.0,30.6,25.0,95,69,41,29.97,29.70,6,2,11,0.05
2013-3-27,46.7,40.6,36.3,30.0,27.7,26.0,74,61,46,30.09,29.97,12,4,22,0.00
2013-3-28,46.0,40.4,34.1,33.0,27.7,26.0,77,61,45,30.22,30.07,10,3,14,0.00
2013-3-29,51.6,43.7,38.0,32.0,28.9,26.0,70,57,38,30.24,30.14,10,2,16,0.00
2013-3-30,57.9,44.4,33.7,31.0,26.7,23.0,78,53,28,30.24,30.13,8,1,13,0.00
2013-3-31,52.6,44.8,37.8,46.0,36.7,23.0,97,75,51,30.14,29.75,6,1,14,0.02
2013-4-1,58.9,46.1,34.7,43.0,32.2,14.0,97,62,35,29.99,29.73,15,4,20,0.01
2013-4-2,42.7,35.6,28.4,19.0,14.5,12.0,59,43,29,30.18,29.99,15,4,22,0.00
2013-4-3,43.8,35.5,28.1,18.0,14.6,10.0,58,43,28,30.38,30.18,10,3,22,0.00
2013-4-4,52.3,38.0,25.3,24.0,17.1,12.0,64,44,25,30.45,30.11,9,1,11,0.00
2013-4-5,60.4,47.8,34.2,33.0,25.5,15.0,90,47,21,30.10,29.82,9,3,18,0.00
2013-4-6,55.4,42.6,33.1,21.0,18.3,13.0,58,39,21,30.36,30.09,11,1,12,0.00
2013-4-7,63.4,52.1,37.8,44.0,37.1,24.0,76,58,44,30.29,30.00,12,2,16,0.00
2013-4-8,78.6,64.0,50.1,51.0,46.1,42.0,74,54,37,30.09,29.95,8,1,13,0.00
2013-4-9,83.0,70.9,60.5,54.0,51.1,48.0,64,51,33,30.05,29.90,11,2,20,0.00
2013-4-10,88.0,74.7,61.6,60.0,55.1,51.0,91,52,35,29.94,29.75,9,2,33,0.05
2013-4-11,77.9,63.5,51.8,63.0,56.5,46.0,94,79,55,29.91,29.81,13,2,19,0.00
2013-4-12,51.6,46.8,44.1,46.0,44.9,43.0,96,93,81,29.89,29.68,9,2,17,0.42
2013-4-13,62.7,49.9,38.7,44.0,37.5,33.0,97,66,38,30.00,29.82,7,2,16,0.00
2013-4-14,61.3,50.5,38.6,36.0,32.6,25.0,84,53,32,30.18,30.00,9,2,15,0.00
2013-4-15,63.9,55.6,52.0,46.0,44.4,34.0,79,67,50,30.33,30.16,7,1,9,0.00
2013-4-16,73.0,59.5,50.6,57.0,51.4,46.0,86,75,57,30.34,30.13,8,1,14,0.00
2013-4-17,71.0,60.1,55.4,58.0,50.1,40.0,97,73,34,30.26,30.11,6,1,10,0.04
2013-4-18,65.6,58.2,55.0,60.0,51.3,38.0,94,79,52,30.27,30.03,5,1,9,0.03
2013-4-19,73.4,63.0,49.5,65.0,58.8,45.0,94,86,72,30.03,29.59,11,2,22,1.30
2013-4-20,54.0,47.8,41.0,46.0,32.2,25.0,93,58,34,30.37,29.77,13,4,19,0.10
2013-4-21,54.4,42.3,29.6,32.0,25.0,19.0,77,52,32,30.63,30.37,8,1,13,0.00
2013-4-22,58.3,45.9,35.8,34.0,32.4,30.0,86,61,41,30.62,30.47,8,2,14,0.00
2013-4-23,59.8,48.6,42.0,43.0,38.6,34.0,87,69,51,30.46,30.15,7,2,10,0.00
2013-4-24,72.6,56.1,40.1,58.0,48.9,39.0,97,79,54,30.15,29.79,9,1,20,0.08
2013-4-25,63.6,50.0,40.8,44.0,32.4,28.0,71,53,30,30.32,30.00,15,3,29,0.00
2013-4-26,62.0,51.1,39.6,37.0,32.0,24.0,81,51,26,30.48,30.32,5,1,12,0.00
2013-4-27,71.8,55.8,39.9,38.0,33.6,30.0,74,46,24,30.47,30.30,4,0,7,0.00
2013-4-28,69.4,57.0,45.1,48.0,40.1,33.0,81,56,30,30.30,30.18,10,1,15,0.02
2013-4-29,57.2,53.6,49.0,56.0,50.4,38.0,97,90,57,30.19,30.10,3,0,9,0.37
2013-4-30,69.4,58.4,52.1,53.0,49.1,36.0,97,74,49,30.32,30.16,6,1,12,0.02
2013-5-1,72.8,58.2,45.1,42.0,35.2,32.0,66,45,25,30.46,30.33,6,1,13,0.00
2013-5-2,74.5,57.5,43.2,47.0,42.7,40.0,89,61,34,30.47,30.33,4,0,9,0.00
2013-5-3,70.8,57.0,46.1,46.0,42.0,35.0,86,60,32,30.42,30.33,6,1,13,0.00
2013-5-4,72.5,56.3,41.6,49.0,42.3,38.0,93,64,32,30.37,30.20,10,1,11,0.00
2013-5-5,68.9,53.4,40.5,43.0,40.1,37.0,88,64,36,30.29,30.18,8,1,10,0.00
2013-5-6,66.6,54.1,41.6,54.0,47.5,38.0,94,79,65,30.25,30.12,8,1,11,0.00
2013-5-7,71.3,60.5,52.3,62.0,55.8,50.0,95,85,64,30.14,30.02,10,2,15,0.17
2013-5-8,74.3,61.7,53.9,61.0,56.1,51.0,96,83,51,30.04,29.91,5,1,10,0.20
2013-5-9,69.2,59.9,51.4,59.0,55.0,50.0,96,84,67,30.00,29.93,4,0,10,0.04
2013-5-10,83.2,67.0,53.2,62.0,57.5,52.0,97,75,40,30.03,29.88,7,0,12,0.64
2013-5-11,74.8,64.1,59.6,65.0,61.1,56.0,98,90,65,29.91,29.72,5,1,15,0.28
2013-5-12,59.4,55.2,47.7,56.0,38.3,27.0,91,57,31,30.02,29.74,12,3,20,0.00
2013-5-13,53.2,46.4,38.9,33.0,29.0,24.0,75,52,33,30.18,30.01,7,2,12,0.00
2013-5-14,59.4,48.1,33.8,47.0,31.2,26.0,93,56,29,30.23,30.07,8,1,13,0.04
2013-5-15,75.8,58.7,48.9,60.0,52.0,44.0,92,79,58,30.09,29.72,3,0,15,0.05
2013-5-16,81.7,69.1,58.4,66.0,58.4,49.0,98,72,36,29.91,29.75,7,1,10,0.13
2013-5-17,76.5,66.6,53.1,49.0,42.8,38.0,65,43,28,30.18,29.91,7,2,13,0.00
2013-5-18,68.6,62.3,57.6,57.0,51.7,44.0,95,70,48,30.26,30.18,6,1,6,0.02
2013-5-19,66.5,60.9,57.1,62.0,59.2,55.0,97,94,86,30.26,30.14,3,0,7,0.02
2013-5-20,83.9,69.9,61.0,68.0,64.7,61.0,99,85,56,30.16,29.98,4,0,9,0.00
2013-5-21,87.9,74.5,63.3,72.0,68.0,63.0,99,81,58,29.99,29.86,5,0,9,0.00
2013-5-22,92.6,76.4,65.3,72.0,66.9,61.0,98,76,38,29.92,29.81,5,1,14,0.00
2013-5-23,79.0,69.5,61.1,71.0,65.2,60.0,96,86,71,29.89,29.74,9,1,13,0.34
2013-5-24,61.6,53.9,45.7,61.0,47.6,36.0,97,80,62,30.12,29.73,11,4,22,0.08
2013-5-25,62.5,52.9,44.1,36.0,34.1,29.0,70,51,31,30.14,30.05,21,5,27,0.00
2013-5-26,69.3,57.7,47.4,38.0,35.5,32.0,65,45,29,30.18,30.11,10,4,17,0.00
2013-5-28,65.1,63.6,62.5,63.0,61.9,61.0,97,94,91,30.12,30.10,2,0,5,0.25
2013-5-29,88.5,74.4,60.7,69.0,63.8,61.0,99,73,43,30.11,30.05,8,1,13,0.00
2013-5-30,91.4,78.8,67.3,69.0,65.8,63.0,88,67,40,30.17,30.10,6,1,9,0.00
2013-5-31,93.7,79.9,67.3,70.0,65.5,57.0,90,65,31,30.14,30.01,9,1,11,0.00
2013-6-1,92.8,79.4,66.0,71.0,66.9,63.0,92,67,45,30.03,29.90,6,0,8,0.00
2013-6-2,85.8,77.2,71.7,71.0,66.6,63.0,91,71,53,29.90,29.81,8,1,15,0.12
2013-6-3,77.3,70.8,65.6,67.0,60.4,53.0,94,71,52,29.93,29.83,6,2,11,0.20
2013-6-4,75.2,63.8,51.0,54.0,45.6,40.0,78,53,34,30.14,29.94,8,1,17,0.00
2013-6-5,80.9,67.8,53.6,51.0,46.4,38.0,73,48,32,30.22,30.07,6,0,9,0.00
2013-6-6,70.9,63.8,60.6,62.0,55.6,49.0,96,76,51,30.11,29.92,3,0,7,0.39
2013-6-7,65.9,63.1,59.9,65.0,62.5,59.0,98,97,94,29.92,29.65,9,2,13,1.02
2013-6-8,77.4,67.2,61.8,63.0,61.1,58.0,98,82,56,30.11,29.69,5,1,10,0.00
2013-6-9,83.4,70.9,57.6,65.0,59.9,53.0,92,70,41,30.22,30.11,3,0,7,0.00
2013-6-10,76.6,69.7,65.1,73.0,67.8,64.0,98,93,80,30.14,29.79,5,1,9,1.36
2013-6-11,78.8,71.7,64.3,68.0,64.2,60.0,98,78,61,29.83,29.74,9,2,15,0.01
2013-6-12,72.2,71.1,69.4,66.0,64.2,60.0,83,79,71,29.85,29.82,3,0,7,0.00
2013-6-13,83.5,71.3,61.8,69.0,64.2,58.0,97,79,58,29.84,29.44,14,2,16,0.79
2013-6-14,77.4,64.6,56.3,58.0,54.7,51.0,92,72,44,29.97,29.60,9,2,17,0.03
2013-6-15,79.2,69.0,57.2,59.0,55.1,48.0,91,64,41,30.08,29.98,8,1,10,0.00
2013-6-16,81.5,69.8,59.9,68.0,59.1,49.0,89,70,48,30.03,29.86,6,1,15,0.05
2013-6-17,85.0,72.6,65.2,71.0,65.6,61.0,94,80,54,29.95,29.88,21,1,21,0.29
2013-6-18,77.1,67.9,63.8,71.0,65.9,61.0,98,93,80,29.93,29.82,3,0,8,0.73
2013-6-19,80.4,68.6,61.7,63.0,56.7,51.0,96,69,38,30.17,29.91,8,1,9,0.00
2013-6-20,80.7,69.1,58.5,65.0,59.2,54.0,96,73,47,30.28,30.17,6,0,9,0.00
2013-6-21,84.5,71.3,58.3,61.0,56.6,52.0,85,62,41,30.32,30.25,3,0,8,0.00
2013-6-22,87.8,73.1,58.6,69.0,63.1,55.0,94,72,50,30.27,30.12,7,0,9,0.00
2013-6-23,86.4,76.0,64.4,73.0,68.1,62.0,93,77,59,30.20,30.07,5,0,7,0.00
2013-6-24,91.0,78.8,68.8,72.0,68.5,64.0,94,73,44,30.12,30.00,5,1,10,0.00
2013-6-25,90.1,78.5,66.8,73.0,68.3,64.0,96,73,48,30.03,29.86,7,1,27,0.11
2013-6-26,87.6,74.9,64.8,71.0,67.6,63.0,98,80,54,29.90,29.80,9,1,18,1.29
2013-6-27,87.9,74.6,67.2,74.0,70.3,67.0,99,87,61,29.84,29.59,3,0,9,0.02
2013-6-28,84.2,74.3,68.8,71.0,67.6,66.0,93,80,59,29.60,29.49,6,1,8,0.01
2013-6-29,87.7,75.6,64.3,68.0,64.1,60.0,95,70,40,29.72,29.50,6,1,13,0.00
2013-6-30,86.8,76.5,67.3,75.0,70.1,65.0,94,81,60,29.87,29.71,3,0,8,0.00
2013-7-1,81.8,75.0,69.2,74.0,71.5,68.0,98,89,75,30.00,29.86,3,0,9,0.43
2013-7-2,84.2,76.2,72.0,74.0,72.0,70.0,97,87,67,30.17,30.00,7,1,9,0.14
2013-7-3,88.5,76.2,71.2,76.0,71.9,69.0,95,87,61,30.25,30.17,2,0,6,0.07
2013-7-4,90.5,79.7,71.3,75.0,72.6,70.0,97,80,56,30.25,30.17,5,1,11,0.00
2013-7-5,91.5,81.5,71.5,75.0,72.2,70.0,96,75,53,30.22,30.11,5,1,15,0.00
2013-7-6,94.6,86.3,76.9,76.0,72.9,71.0,81,65,48,30.18,30.05,3,1,10,0.00
2013-7-7,92.1,78.4,68.8,75.0,70.3,67.0,95,77,54,30.10,29.98,5,1,15,0.09
2013-7-8,83.9,73.7,67.1,70.0,68.2,65.0,97,84,59,30.10,30.04,5,0,10,0.07
2013-7-9,86.1,75.9,69.8,74.0,70.1,68.0,95,83,67,30.10,30.01,10,0,12,0.01
2013-7-10,88.1,77.9,70.6,75.0,71.7,70.0,97,82,61,30.02,29.84,8,1,9,0.07
2013-7-11,84.3,75.9,71.1,71.0,67.5,62.0,93,76,55,29.94,29.83,4,1,10,0.02
2013-7-12,73.0,69.6,67.5,69.0,64.4,60.0,97,84,65,30.05,29.93,7,1,10,0.65
2013-7-13,86.3,75.6,68.1,74.0,70.5,67.0,98,85,64,30.29,30.04,5,1,11,0.09
2013-7-14,92.3,80.2,70.2,74.0,71.7,68.0,96,77,52,30.36,30.27,2,0,9,0.00
2013-7-15,93.4,81.9,71.2,75.0,72.1,70.0,95,74,48,30.30,30.18,5,1,11,0.00
2013-7-16,92.5,83.7,77.0,73.0,70.5,67.0,85,66,44,30.25,30.17,7,1,12,0.00
2013-7-17,93.4,84.5,77.1,73.0,69.5,66.0,77,63,40,30.20,30.09,3,0,6,0.00
2013-7-18,96.7,85.3,76.6,77.0,73.7,70.0,85,70,45,30.11,29.99,5,1,8,0.00
2013-7-19,96.3,84.0,73.6,77.0,73.6,68.0,92,72,49,30.01,29.84,9,1,14,0.02
2013-7-20,89.2,81.2,73.9,74.0,70.1,66.0,84,70,54,29.87,29.79,8,1,13,0.00
2013-7-21,85.4,78.6,72.8,73.0,69.3,66.0,88,73,57,29.95,29.87,6,1,9,0.00
2013-7-22,89.7,77.8,70.4,75.0,71.1,69.0,97,81,58,29.95,29.78,9,1,11,0.87
2013-7-23,84.1,75.4,70.1,74.0,69.8,66.0,98,84,58,29.78,29.63,5,1,10,0.26
2013-7-24,79.6,72.9,63.7,67.0,62.8,53.0,91,72,47,29.97,29.68,7,1,12,0.00
2013-7-25,75.0,64.9,54.1,62.0,56.0,50.0,87,73,62,30.06,29.97,7,1,10,0.00
2013-7-26,82.0,71.4,62.6,61.0,58.9,53.0,89,67,40,30.10,30.03,5,1,9,0.00
2013-7-27,84.1,72.3,63.2,70.0,66.0,61.0,95,82,59,30.06,29.92,5,0,13,0.03
2013-7-28,85.7,73.9,67.9,71.0,67.7,65.0,96,82,58,29.97,29.90,5,0,10,0.05
2013-7-29,79.5,70.9,63.4,69.0,58.2,54.0,96,67,44,30.16,29.98,9,1,12,0.00
2013-7-30,80.0,70.1,61.2,61.0,56.8,55.0,82,64,45,30.24,30.15,7,1,10,0.00
2013-7-31,80.7,71.7,62.9,67.0,63.3,60.0,91,76,61,30.18,30.02,3,0,7,0.00
2013-8-1,83.3,71.3,66.5,71.0,67.5,65.0,97,88,64,30.02,29.82,3,0,4,0.39
2013-8-2,83.8,73.1,63.4,67.0,62.5,58.0,97,72,44,29.96,29.84,10,0,14,0.00
2013-8-3,74.9,70.0,65.2,67.0,63.5,61.0,93,80,70,29.96,29.91,4,1,11,0.04
2013-8-4,76.6,68.9,62.4,63.0,57.2,53.0,92,68,46,30.03,29.91,8,2,17,0.00
2013-8-5,76.1,67.0,56.8,56.0,53.0,48.0,87,63,39,30.12,30.03,7,1,8,0.00
2013-8-6,72.4,66.3,61.7,64.0,60.2,54.0,92,81,68,30.11,30.05,4,0,8,0.02
2013-8-7,77.1,70.3,65.8,71.0,67.1,64.0,96,90,79,30.11,30.03,6,0,7,1.02
2013-8-8,84.5,74.7,66.8,77.0,71.2,66.0,99,89,68,30.04,29.98,9,1,17,0.69
2013-8-9,84.0,77.4,73.0,77.0,73.4,71.0,98,88,73,29.99,29.84,7,1,13,0.14
2013-8-10,82.9,74.5,66.3,71.0,64.8,62.0,92,73,49,30.08,29.93,5,1,10,0.00
2013-8-11,85.8,73.9,62.7,69.0,64.6,59.0,93,74,54,30.15,30.02,4,0,7,0.00
2013-8-12,84.6,75.1,68.5,72.0,66.8,63.0,96,77,49,30.05,29.92,3,0,8,0.04
2013-8-13,80.9,70.9,65.1,71.0,67.1,60.0,98,88,67,29.92,29.73,6,1,10,1.92
2013-8-14,71.9,63.6,55.0,59.0,52.1,47.0,83,67,50,30.10,29.83,11,2,19,0.00
2013-8-15,76.3,64.1,53.4,56.0,52.2,49.0,90,68,42,30.21,30.11,4,0,8,0.00
2013-8-16,80.2,66.4,54.4,58.0,54.9,52.0,93,69,42,30.22,30.15,4,0,8,0.00
2013-8-17,83.4,69.3,56.2,62.0,57.7,55.0,95,70,38,30.29,30.22,5,0,9,0.00
2013-8-18,68.6,65.4,61.7,64.0,60.2,58.0,90,83,70,30.28,30.18,4,0,8,0.07
2013-8-19,73.9,66.4,59.5,67.0,62.0,57.0,96,86,76,30.19,30.09,4,0,7,0.00
2013-8-20,85.5,71.8,63.5,71.0,64.9,62.0,99,81,48,30.19,30.10,5,0,8,0.00
2013-8-21,89.3,74.9,62.2,74.0,67.9,61.0,97,80,55,30.21,30.07,2,0,5,0.00
2013-8-22,84.2,76.5,70.1,72.0,69.7,66.0,96,80,63,30.09,29.91,4,1,9,0.00
2013-8-23,76.6,70.1,64.2,67.0,63.3,58.0,88,79,58,30.14,29.95,5,0,7,0.00
2013-8-24,80.9,68.5,58.0,58.0,55.3,53.0,87,65,39,30.36,30.14,7,1,8,0.00
2013-8-25,82.3,68.3,55.7,63.0,57.5,51.0,97,71,42,30.44,30.27,3,0,9,0.00
2013-8-26,86.3,73.5,59.9,67.0,61.4,54.0,86,67,49,30.28,29.97,8,1,13,0.00
2013-8-27,86.3,77.2,69.2,71.0,67.9,65.0,87,73,57,29.97,29.88,5,1,10,0.00
2013-8-28,81.4,74.3,70.7,73.0,70.5,69.0,95,88,71,29.91,29.82,8,1,12,0.05
2013-8-29,82.1,73.2,68.4,72.0,68.5,67.0,96,86,63,30.03,29.88,6,1,9,0.00
2013-8-30,87.2,75.5,68.8,73.0,69.3,67.0,95,82,56,30.04,29.87,5,1,9,0.00
2013-8-31,87.8,77.1,68.3,75.0,71.2,67.0,96,83,62,29.89,29.79,4,0,6,0.00
2013-9-1,88.0,78.0,70.9,74.0,72.3,70.0,98,84,59,29.85,29.77,7,0,8,0.00
2013-9-2,90.0,77.4,70.1,72.0,70.2,68.0,95,80,53,29.80,29.71,6,1,10,0.01
2013-9-3,80.5,72.2,63.5,71.0,61.3,54.0,97,71,46,29.96,29.72,7,2,12,0.00
2013-9-4,80.8,68.5,59.1,58.0,55.8,54.0,86,66,42,30.08,29.96,8,1,11,0.00
2013-9-5,77.9,68.4,59.9,61.0,54.4,46.0,82,63,37,30.17,30.00,7,1,11,0.00
2013-9-6,72.6,60.1,50.0,50.0,43.5,38.0,83,57,29,30.29,30.17,4,1,10,0.00
2013-9-7,79.9,64.1,49.6,61.0,52.1,45.0,90,68,41,30.17,29.95,5,0,8,0.00
2013-9-8,79.4,70.4,61.1,65.0,59.2,46.0,87,69,51,30.10,29.90,8,1,12,0.00
2013-9-9,76.8,63.4,50.6,63.0,53.7,45.0,89,71,59,30.24,30.11,3,0,8,0.00
2013-9-10,92.3,77.7,66.6,75.0,70.0,63.0,94,79,53,30.18,30.07,6,1,10,0.00
2013-9-11,93.8,81.3,71.1,77.0,72.9,70.0,96,77,56,30.14,30.00,5,0,8,0.00
2013-9-12,86.2,73.7,67.4,76.0,70.2,66.0,98,89,69,29.99,29.74,7,0,12,0.91
2013-9-13,73.6,66.3,57.7,68.0,56.6,48.0,98,73,49,29.94,29.69,12,2,14,0.00
2013-9-14,64.0,55.7,48.6,48.0,46.7,45.0,89,72,54,30.18,29.94,7,2,17,0.00
2013-9-15,74.6,59.0,44.9,56.0,50.3,44.0,96,76,46,30.26,30.10,4,0,8,0.00
2013-9-16,70.1,61.5,56.0,59.0,54.7,50.0,96,79,55,30.28,30.06,5,1,10,0.14
2013-9-17,67.0,53.9,41.9,50.0,41.9,39.0,88,66,40,30.46,30.29,8,1,15,0.00
2013-9-18,72.1,56.3,44.7,52.0,46.6,43.0,96,73,44,30.38,30.22,5,0,7,0.00
2013-9-19,77.5,60.8,46.5,58.0,52.1,45.0,95,75,46,30.23,30.10,5,0,8,0.00
2013-9-20,79.5,65.0,54.1,62.0,57.4,53.0,98,79,53,30.11,29.98,4,0,8,0.00
2013-9-21,74.6,63.9,56.9,64.0,59.7,55.0,97,87,63,30.00,29.70,7,0,10,0.71
2013-9-22,65.5,59.5,51.1,60.0,51.7,45.0,98,77,53,29.97,29.72,9,2,13,0.01
2013-9-23,63.2,54.6,45.5,47.0,43.8,40.0,84,68,52,30.11,29.97,12,1,17,0.00
2013-9-24,70.7,55.0,42.9,51.0,45.7,40.0,91,73,45,30.14,29.96,5,1,9,0.00
2013-9-25,74.5,58.4,48.5,49.0,46.5,43.0,88,67,34,30.01,29.91,5,0,7,0.00
2013-9-26,73.9,60.8,48.9,57.0,51.7,48.0,96,75,46,30.10,29.96,5,0,9,0.00
2013-9-27,72.6,63.1,56.1,58.0,54.1,50.0,91,74,45,30.27,30.10,8,1,11,0.00
2013-9-28,74.3,60.9,53.1,55.0,52.2,49.0,94,75,46,30.34,30.25,6,0,8,0.00
2013-9-29,72.8,59.6,48.7,56.0,51.7,47.0,95,77,51,30.25,30.09,3,0,6,0.00
2013-9-30,75.7,60.0,50.7,56.0,51.9,50.0,97,77,42,30.11,30.00,4,0,7,0.00
2013-10-1,77.8,64.5,54.0,61.0,56.5,52.0,94,77,52,30.08,29.97,4,0,10,0.00
2013-10-2,82.8,69.3,57.5,63.0,59.7,55.0,94,73,51,30.07,29.99,7,1,12,0.00
2013-10-3,81.5,70.2,59.4,66.0,61.7,57.0,94,76,55,30.14,30.05,3,0,6,0.00
2013-10-4,83.8,71.4,62.0,68.0,64.5,61.0,98,80,54,30.10,30.01,3,0,7,0.00
2013-10-5,87.2,73.3,66.7,70.0,65.9,64.0,92,79,49,30.10,30.00,3,0,12,0.01
2013-10-6,84.0,72.2,64.6,71.0,66.4,64.0,98,83,62,30.05,29.93,3,0,6,0.00
2013-10-7,71.7,64.3,54.3,69.0,61.1,45.0,97,89,70,30.04,29.75,14,1,24,1.13
2013-10-8,65.8,56.0,46.1,47.0,45.4,43.0,93,69,45,30.33,30.05,7,1,11,0.00
2013-10-9,59.7,54.4,48.7,49.0,45.5,43.0,82,72,63,30.39,30.29,9,2,16,0.00
2013-10-10,56.2,53.8,50.2,56.0,51.3,47.0,98,91,78,30.28,30.04,7,1,13,2.96
2013-10-11,60.6,57.4,54.2,60.0,56.7,54.0,98,98,94,30.07,30.00,10,2,15,3.45
2013-10-12,69.2,63.2,59.3,59.0,52.9,44.0,94,71,46,30.22,30.05,7,2,14,0.00
2013-10-13,68.6,60.2,52.8,55.0,51.6,48.0,84,74,54,30.37,30.22,12,2,15,0.00
2013-10-14,67.2,56.7,51.1,52.0,49.8,48.0,90,78,55,30.38,30.26,3,0,6,0.00
2013-10-15,72.5,57.9,47.7,53.0,49.4,47.0,98,76,44,30.27,30.12,7,0,7,0.00
2013-10-16,67.5,60.2,55.0,60.0,55.4,49.0,94,84,76,30.11,29.92,2,0,6,0.00
2013-10-17,71.2,63.5,58.4,63.0,60.4,56.0,98,90,74,29.93,29.72,9,0,20,0.07
2013-10-18,61.9,55.3,47.0,55.0,44.9,41.0,88,69,49,30.02,29.80,8,1,14,0.00
2013-10-19,60.6,51.7,41.7,54.0,46.9,41.0,96,85,61,30.03,29.78,4,0,16,0.11
2013-10-20,60.0,50.2,41.7,47.0,39.0,36.0,82,67,44,30.11,29.85,8,2,13,0.00
2013-10-21,67.4,51.6,38.9,46.0,39.7,37.0,92,67,39,30.17,30.02,2,0,10,0.00
2013-10-22,53.6,46.5,43.1,36.0,34.0,32.0,72,62,47,29.89,29.85,2,0,5,0.00
2013-10-23,51.7,44.3,39.2,38.0,34.3,31.0,83,69,47,29.87,29.70,7,1,14,0.00
2013-10-24,47.9,41.4,36.2,35.0,30.7,28.0,85,67,48,30.12,29.88,9,2,18,0.00
2013-10-25,50.5,41.9,34.6,36.0,31.7,29.0,83,68,50,30.31,30.12,7,2,20,0.00
2013-10-26,54.9,44.2,33.7,32.0,30.1,28.0,83,60,36,30.30,29.94,6,1,15,0.00
2013-10-27,54.1,46.5,38.1,36.0,32.7,31.0,81,60,43,30.18,29.95,10,2,13,0.00
2013-10-28,59.0,44.9,33.0,39.0,34.8,31.0,91,70,44,30.33,30.18,2,0,6,0.00
2013-10-29,59.9,48.1,40.2,43.0,37.9,35.0,86,69,47,30.43,30.32,5,0,7,0.00
2013-10-30,61.7,52.2,44.6,54.0,48.8,42.0,97,88,73,30.36,30.18,2,0,6,0.00
2013-10-31,63.3,57.1,49.8,59.0,55.2,49.0,99,93,84,30.23,29.78,5,0,8,0.03
2013-11-1,71.6,62.6,54.9,63.0,53.7,45.0,95,75,41,29.77,29.55,11,2,19,0.28
2013-11-2,61.9,54.7,48.1,50.0,44.1,39.0,86,68,49,29.86,29.66,7,1,12,0.00
2013-11-3,50.2,44.3,32.2,42.0,30.8,21.0,81,61,34,30.51,29.86,9,2,20,0.00
2013-11-4,43.6,35.2,27.2,25.0,21.4,18.0,79,59,37,30.68,30.51,5,0,13,0.00
2013-11-5,57.3,45.7,34.4,44.0,36.4,25.0,85,70,56,30.66,30.50,4,0,5,0.00
2013-11-6,64.4,54.7,48.1,50.0,47.9,44.0,89,79,58,30.49,30.06,6,0,9,0.00
2013-11-7,57.7,51.8,40.8,55.0,45.2,25.0,94,79,54,30.05,29.87,12,2,16,0.10
2013-11-8,46.1,40.7,34.7,31.0,27.3,24.0,76,60,48,30.31,30.06,11,2,20,0.00
2013-11-9,52.3,40.4,30.0,32.0,28.5,25.0,83,64,41,30.36,30.02,5,0,9,0.00
2013-11-10,55.9,46.6,37.5,37.0,31.1,28.0,74,56,45,30.19,29.96,11,3,20,0.00
2013-11-11,53.5,45.9,34.8,33.0,30.8,28.0,79,57,44,30.28,30.02,7,2,14,0.00
2013-11-12,49.7,36.3,26.5,36.0,21.8,12.0,78,57,40,30.39,29.99,14,2,25,0.00
2013-11-13,37.9,31.6,24.2,22.0,18.7,14.0,78,60,47,30.48,30.37,10,2,23,0.00
2013-11-14,53.1,39.4,27.6,21.0,17.5,13.0,71,45,21,30.37,30.24,7,1,15,0.00
2013-11-15,56.7,43.2,31.9,34.0,26.3,21.0,73,53,27,30.30,30.20,3,0,5,0.00
2013-11-16,58.8,48.0,39.4,47.0,43.0,34.0,97,84,62,30.36,30.26,3,0,6,0.03
2013-11-17,59.4,54.1,48.2,58.0,52.3,47.0,98,93,86,30.26,29.71,6,1,14,0.01
2013-11-18,62.1,56.6,44.4,59.0,37.0,26.0,95,52,29,29.92,29.67,11,4,21,0.13
2013-11-19,44.9,40.1,30.9,28.0,25.0,21.0,69,56,47,30.41,29.92,15,3,23,0.00
2013-11-20,44.9,34.7,26.2,23.0,18.9,15.0,79,55,32,30.61,30.40,8,1,8,0.00
2013-11-21,47.7,39.3,28.4,38.0,28.0,16.0,75,64,54,30.63,30.41,2,0,5,0.00
2013-11-22,51.5,47.9,44.9,49.0,44.4,38.0,96,87,76,30.41,30.01,14,1,22,0.03
2013-11-23,50.7,38.3,26.6,44.0,25.0,8.0,80,60,44,30.18,30.03,12,4,23,0.00
2013-11-24,27.9,24.1,20.9,11.0,4.6,-1.0,60,44,30,30.51,30.19,17,5,26,0.00
2013-11-25,33.5,26.1,18.6,16.0,11.4,9.0,70,55,39,30.58,30.36,8,1,10,0.00
2013-11-26,42.2,32.9,30.5,42.0,25.0,13.0,98,75,48,30.36,29.61,9,1,16,1.13
2013-11-27,46.1,35.5,28.4,46.0,31.2,17.0,98,85,60,29.96,29.52,12,5,23,0.44
2013-11-28,32.7,29.2,26.4,20.0,17.0,15.0,69,61,51,30.51,29.97,12,3,19,0.00
2013-11-29,36.7,28.9,24.1,23.0,19.5,17.0,83,69,52,30.77,30.50,7,1,13,0.00
2013-11-30,35.9,28.5,20.7,25.0,19.7,14.0,80,70,59,30.77,30.41,6,0,8,0.00
2013-12-1,39.1,33.0,25.2,29.0,26.1,22.0,89,76,61,30.40,30.06,3,0,5,0.00
2013-12-2,44.7,38.3,35.0,35.0,31.9,28.0,87,78,66,30.06,29.91,2,0,3,0.00
2013-12-3,49.7,41.2,36.5,38.0,34.9,32.0,88,79,63,30.04,29.91,3,0,5,0.00
2013-12-4,50.4,42.9,35.6,46.0,38.8,33.0,96,85,72,30.14,30.01,1,0,3,0.00
2013-12-5,55.3,51.5,47.2,55.0,51.2,46.0,99,99,96,30.10,29.94,2,0,5,0.00
2013-12-6,56.9,44.6,34.8,57.0,43.8,34.0,99,96,90,30.20,29.89,7,2,14,1.33
2013-12-7,59.4,33.2,27.6,34.0,27.7,20.0,97,81,36,30.57,30.15,11,2,13,0.05
2013-12-8,27.7,25.9,24.3,26.0,20.9,16.0,96,82,63,30.62,30.36,6,1,10,0.00
2013-12-9,33.3,31.2,27.4,33.0,30.5,26.0,98,97,96,30.36,30.06,5,1,8,0.29
2013-12-10,32.6,29.0,20.3,31.0,26.3,17.0,98,90,66,30.22,30.00,6,2,17,0.08
2013-12-11,31.6,23.3,15.8,19.0,16.7,13.0,90,76,55,30.42,30.22,10,1,14,0.07
2013-12-12,25.3,21.5,15.5,19.0,11.0,6.0,87,65,46,30.44,30.24,8,2,14,0.00
2013-12-13,34.8,26.0,15.4,20.0,14.4,7.0,78,62,48,30.36,30.22,11,2,18,0.03
2013-12-14,30.9,29.1,27.4,29.0,24.1,20.0,97,82,68,30.41,29.84,12,3,17,0.01
2013-12-15,38.3,32.7,26.8,34.0,25.8,20.0,94,76,66,29.93,29.74,14,4,19,0.37
2013-12-16,31.4,24.7,20.4,24.0,13.4,8.0,76,62,55,30.25,29.93,14,4,24,0.01
2013-12-17,26.9,23.8,20.5,24.0,20.2,16.0,94,86,68,30.23,29.99,9,2,13,0.00
2013-12-18,35.1,28.4,22.2,23.0,21.2,19.0,93,76,52,30.24,30.02,9,2,17,0.08
2013-12-19,46.0,32.7,22.4,30.0,24.9,18.0,90,74,50,30.23,30.10,3,0,5,0.20
2013-12-20,50.8,42.1,33.2,38.0,31.6,29.0,85,67,49,30.13,30.00,4,0,7,0.01
2013-12-21,62.1,51.5,42.0,55.0,44.7,36.0,90,78,62,30.02,29.90,6,1,10,0.00
2013-12-22,64.9,60.1,55.2,62.0,57.7,54.0,97,92,84,29.98,29.80,15,3,21,0.12
2013-12-23,58.4,49.7,34.6,57.0,46.5,27.0,99,89,72,30.23,29.93,13,3,23,0.54
2013-12-24,35.5,29.8,21.6,27.0,20.1,10.0,89,68,53,30.46,30.21,18,5,30,0.00
2013-12-25,27.5,22.5,16.7,17.0,11.7,9.0,77,64,51,30.59,30.43,9,3,13,0.00
2013-12-26,38.6,28.0,21.1,27.0,21.5,16.0,93,77,54,30.42,30.25,10,1,20,0.06
2013-12-27,45.2,32.7,23.1,24.0,20.7,18.0,84,64,35,30.42,30.32,9,1,17,0.00
2013-12-28,54.6,41.6,28.4,28.0,24.8,20.0,75,53,34,30.33,30.13,9,1,19,0.00
2013-12-29,42.3,39.7,37.1,40.0,35.1,27.0,98,85,56,30.11,29.55,12,2,17,0.79
2013-12-30,42.5,34.9,21.2,39.0,27.7,15.0,95,76,61,30.21,29.81,11,3,23,0.00
2013-12-31,36.2,26.3,21.7,23.0,16.8,14.0,81,68,50,30.35,30.12,13,3,24,0.00
2014-1-1,37.1,30.3,19.4,26.0,22.1,14.0,83,72,56,30.44,30.19,4,1,8,0.00
2014-1-2,31.3,26.5,18.9,27.0,22.9,17.0,93,86,76,30.18,29.71,10,2,15,0.00